Location: Maccacari
(45.1333°N, 11.1333°E)
Time: 18:34:21
(UTC+00:00)

USA 234 - Pass Details

Date: 20 January 2021
Orbit: 1100 x 1107 km, 123.0° (Epoch: 01 March)

Event Time Altitude Azimuth Distance (km) Brightness Sun altitude
Exits shadow 20:27:37 25° 301° (WNW) 2,048 5.0 -45.4°
Drops below altitude 10° 20:30:08 10° 306° (NW) 2,965 6.0 -45.9°
Sets 20:32:38 0° 309° (NW) 3,926 6.8 -46.3°
